Time,TemperatureF,DewpointF,PressureIn,WindDirection,WindDirectionDegrees,WindSpeedMPH,WindSpeedGustMPH,Humidity,HourlyPrecipIn,Conditions,Clouds,dailyrainin,SoftwareType,DateUTC
2013-07-10 00:05:00,68.7,68.0,30.07,ESE,120,3.0,5.0,98,0.00,,,0.00,weatherlink.com 1.10,2013-07-10 04:05:00,
2013-07-10 00:20:00,68.4,68.0,30.07,SE,137,5.0,8.0,97,0.00,,,0.00,weatherlink.com 1.10,2013-07-10 04:20:00,
2013-07-10 00:35:00,68.1,68.0,30.07,ESE,116,2.0,7.0,98,0.00,,,0.00,weatherlink.com 1.10,2013-07-10 04:35:00,
2013-07-10 00:50:00,68.2,68.0,30.06,East,94,3.0,4.0,98,0.00,,,0.00,weatherlink.com 1.10,2013-07-10 04:50:00,
2013-07-10 01:05:00,68.0,68.0,30.06,SE,134,6.0,7.0,98,0.00,,,0.00,weatherlink.com 1.10,2013-07-10 05:05:00,
2013-07-10 01:20:00,67.9,67.0,30.05,East,94,4.0,7.0,98,0.00,,,0.00,weatherlink.com 1.10,2013-07-10 05:20:00,
2013-07-10 01:35:00,67.9,67.0,30.05,ENE,76,4.0,5.0,98,0.00,,,0.00,weatherlink.com 1.10,2013-07-10 05:35:00,
2013-07-10 01:50:00,68.1,68.0,30.05,ESE,107,9.0,10.0,98,0.00,,,0.00,weatherlink.com 1.10,2013-07-10 05:50:00,
2013-07-10 02:05:00,68.2,68.0,30.04,East,89,8.0,10.0,99,0.00,,,0.00,weatherlink.com 1.10,2013-07-10 06:05:00,
2013-07-10 02:20:00,68.3,68.0,30.03,East,79,4.0,6.0,99,0.00,,,0.00,weatherlink.com 1.10,2013-07-10 06:20:00,
2013-07-10 02:35:00,68.3,68.0,30.03,ESE,107,5.0,6.0,99,0.00,,,0.00,weatherlink.com 1.10,2013-07-10 06:35:00,
2013-07-10 02:50:00,68.1,68.0,30.03,East,95,4.0,4.0,99,0.00,,,0.00,weatherlink.com 1.10,2013-07-10 06:50:00,
2013-07-10 03:05:00,68.1,68.0,30.03,ESE,113,3.0,4.0,99,0.00,,,0.00,weatherlink.com 1.10,2013-07-10 07:05:00,
2013-07-10 03:20:00,67.9,68.0,30.02,East,81,3.0,6.0,99,0.00,,,0.00,weatherlink.com 1.10,2013-07-10 07:20:00,
2013-07-10 03:35:00,68.0,68.0,30.02,NE,55,2.0,4.0,99,0.00,,,0.00,weatherlink.com 1.10,2013-07-10 07:35:00,
2013-07-10 03:50:00,68.1,68.0,30.02,East,84,3.0,4.0,99,0.00,,,0.00,weatherlink.com 1.10,2013-07-10 07:50:00,
2013-07-10 04:05:00,68.3,68.0,30.01,East,87,4.0,4.0,99,0.00,,,0.00,weatherlink.com 1.10,2013-07-10 08:05:00,
2013-07-10 04:20:00,68.4,68.0,30.02,East,80,2.0,4.0,99,0.00,,,0.00,weatherlink.com 1.10,2013-07-10 08:20:00,
2013-07-10 04:35:00,68.6,68.0,30.01,East,87,3.0,4.0,99,0.00,,,0.00,weatherlink.com 1.10,2013-07-10 08:35:00,
2013-07-10 04:50:00,68.6,68.0,30.01,East,93,2.0,3.0,99,0.00,,,0.00,weatherlink.com 1.10,2013-07-10 08:50:00,
2013-07-10 05:05:00,68.8,69.0,30.01,East,88,1.0,2.0,99,0.00,,,0.00,weatherlink.com 1.10,2013-07-10 09:05:00,
2013-07-10 05:21:00,69.0,69.0,30.01,ESE,110,2.0,3.0,99,0.00,,,0.00,weatherlink.com 1.10,2013-07-10 09:21:00,
2013-07-10 05:36:00,69.0,69.0,30.01,East,88,1.0,3.0,99,0.00,,,0.00,weatherlink.com 1.10,2013-07-10 09:36:00,
2013-07-10 05:51:00,69.1,69.0,30.02,ESE,114,3.0,3.0,99,0.00,,,0.00,weatherlink.com 1.10,2013-07-10 09:51:00,
2013-07-10 06:06:00,69.4,69.0,30.02,East,88,2.0,4.0,99,0.00,,,0.00,weatherlink.com 1.10,2013-07-10 10:06:00,
2013-07-10 06:21:00,69.5,69.0,30.02,East,82,3.0,3.0,99,0.00,,,0.00,weatherlink.com 1.10,2013-07-10 10:21:00,
2013-07-10 06:36:00,69.9,70.0,30.02,ESE,103,3.0,4.0,99,0.00,,,0.00,weatherlink.com 1.10,2013-07-10 10:36:00,
2013-07-10 06:51:00,70.3,70.0,30.02,SE,145,5.0,6.0,99,0.00,,,0.00,weatherlink.com 1.10,2013-07-10 10:51:00,
2013-07-10 07:06:00,69.7,69.0,30.02,SE,128,4.0,6.0,99,0.00,,,0.00,weatherlink.com 1.10,2013-07-10 11:06:00,
2013-07-10 07:21:00,69.3,69.0,30.01,ESE,115,6.0,9.0,99,0.00,,,0.00,weatherlink.com 1.10,2013-07-10 11:21:00,
2013-07-10 07:36:00,69.4,69.0,30.01,ESE,103,2.0,5.0,99,0.00,,,0.00,weatherlink.com 1.10,2013-07-10 11:36:00,
2013-07-10 07:51:00,70.3,70.0,30.01,East,88,4.0,5.0,99,0.00,,,0.00,weatherlink.com 1.10,2013-07-10 11:51:00,
2013-07-10 08:06:00,71.2,71.0,30.01,SE,139,4.0,7.0,99,0.00,,,0.00,weatherlink.com 1.10,2013-07-10 12:06:00,
2013-07-10 08:21:00,69.5,69.0,30.01,ESE,106,4.0,9.0,99,0.00,,,0.00,weatherlink.com 1.10,2013-07-10 12:21:00,
2013-07-10 08:36:00,69.9,70.0,30.00,ESE,117,4.0,7.0,99,0.00,,,0.00,weatherlink.com 1.10,2013-07-10 12:36:00,
2013-07-10 08:51:00,69.6,69.0,30.00,East,97,4.0,10.0,99,0.00,,,0.00,weatherlink.com 1.10,2013-07-10 12:51:00,
2013-07-10 09:06:00,68.9,69.0,30.00,SSE,155,6.0,10.0,99,0.00,,,0.00,weatherlink.com 1.10,2013-07-10 13:06:00,
2013-07-10 09:21:00,69.1,69.0,29.99,ESE,113,7.0,10.0,99,0.00,,,0.00,weatherlink.com 1.10,2013-07-10 13:21:00,
2013-07-10 09:36:00,70.3,70.0,29.99,SW,214,4.0,9.0,99,0.00,,,0.00,weatherlink.com 1.10,2013-07-10 13:36:00,
2013-07-10 09:51:00,71.1,71.0,29.99,SSW,197,7.0,11.0,99,0.00,,,0.00,weatherlink.com 1.10,2013-07-10 13:51:00,
2013-07-10 10:06:00,71.7,71.0,29.99,South,190,8.0,9.0,99,0.00,,,0.00,weatherlink.com 1.10,2013-07-10 14:06:00,
2013-07-10 10:21:00,71.4,71.0,29.99,SW,214,5.0,8.0,99,0.00,,,0.00,weatherlink.com 1.10,2013-07-10 14:21:00,
2013-07-10 10:36:00,72.4,72.0,29.98,SSE,152,5.0,9.0,99,0.00,,,0.00,weatherlink.com 1.10,2013-07-10 14:36:00,
2013-07-10 10:51:00,72.9,73.0,29.98,SW,221,6.0,10.0,99,0.00,,,0.00,weatherlink.com 1.10,2013-07-10 14:51:00,
2013-07-10 11:06:00,71.4,71.0,29.98,East,101,7.0,10.0,99,0.00,,,0.00,weatherlink.com 1.10,2013-07-10 15:06:00,
2013-07-10 11:21:00,72.1,72.0,29.98,SSW,198,4.0,10.0,99,0.00,,,0.00,weatherlink.com 1.10,2013-07-10 15:21:00,
2013-07-10 11:36:00,73.5,73.0,29.98,SW,214,13.0,13.0,99,0.00,,,0.00,weatherlink.com 1.10,2013-07-10 15:36:00,
2013-07-10 11:51:00,74.0,73.0,29.97,SSE,166,6.0,12.0,98,0.00,,,0.00,weatherlink.com 1.10,2013-07-10 15:51:00,
2013-07-10 12:06:00,74.0,73.0,29.97,SW,224,11.0,15.0,97,0.00,,,0.00,weatherlink.com 1.10,2013-07-10 16:06:00,
2013-07-10 12:21:00,74.5,73.0,29.97,SSW,212,14.0,16.0,96,0.00,,,0.00,weatherlink.com 1.10,2013-07-10 16:21:00,
2013-07-10 12:36:00,76.4,74.0,29.97,NW,316,3.0,17.0,92,0.00,,,0.00,weatherlink.com 1.10,2013-07-10 16:36:00,
2013-07-10 12:51:00,75.9,73.0,29.96,SW,215,11.0,17.0,91,0.00,,,0.00,weatherlink.com 1.10,2013-07-10 16:51:00,
2013-07-10 13:06:00,76.0,73.0,29.95,SSW,195,9.0,16.0,91,0.00,,,0.00,weatherlink.com 1.10,2013-07-10 17:06:00,
2013-07-10 13:21:00,76.5,73.0,29.95,SSW,212,14.0,18.0,89,0.00,,,0.00,weatherlink.com 1.10,2013-07-10 17:21:00,
2013-07-10 13:36:00,76.0,73.0,29.95,SW,224,14.0,15.0,90,0.00,,,0.00,weatherlink.com 1.10,2013-07-10 17:36:00,
2013-07-10 13:52:00,75.9,73.0,29.94,SW,215,12.0,16.0,91,0.00,,,0.00,weatherlink.com 1.10,2013-07-10 17:52:00,
2013-07-10 14:06:00,76.6,74.0,29.94,SW,225,16.0,16.0,91,0.00,,,0.00,weatherlink.com 1.10,2013-07-10 18:06:00,
2013-07-10 14:21:00,76.8,74.0,29.94,SW,219,15.0,17.0,90,0.00,,,0.00,weatherlink.com 1.10,2013-07-10 18:21:00,
2013-07-10 14:36:00,77.4,75.0,29.93,SSW,198,13.0,17.0,91,0.00,,,0.00,weatherlink.com 1.10,2013-07-10 18:36:00,
2013-07-10 14:52:00,77.0,74.0,29.92,SW,219,11.0,18.0,91,0.00,,,0.00,weatherlink.com 1.10,2013-07-10 18:52:00,
2013-07-10 15:07:00,76.8,74.0,29.92,SW,224,14.0,17.0,91,0.00,,,0.00,weatherlink.com 1.10,2013-07-10 19:07:00,
2013-07-10 15:22:00,76.5,74.0,29.92,SW,232,12.0,17.0,92,0.00,,,0.00,weatherlink.com 1.10,2013-07-10 19:22:00,
2013-07-10 15:37:00,76.6,74.0,29.91,SSW,201,12.0,17.0,92,0.00,,,0.00,weatherlink.com 1.10,2013-07-10 19:37:00,
2013-07-10 15:52:00,76.4,74.0,29.91,SW,232,20.0,21.0,92,0.00,,,0.00,weatherlink.com 1.10,2013-07-10 19:52:00,
2013-07-10 16:07:00,75.9,74.0,29.90,WSW,257,16.0,22.0,94,0.00,,,0.00,weatherlink.com 1.10,2013-07-10 20:07:00,
2013-07-10 16:22:00,75.3,74.0,29.89,SSW,204,13.0,21.0,95,0.00,,,0.00,weatherlink.com 1.10,2013-07-10 20:22:00,
2013-07-10 16:37:00,75.0,74.0,29.89,SW,224,13.0,19.0,95,0.00,,,0.00,weatherlink.com 1.10,2013-07-10 20:37:00,
2013-07-10 16:52:00,74.5,73.0,29.89,SSW,205,16.0,21.0,95,0.00,,,0.00,weatherlink.com 1.10,2013-07-10 20:52:00,
2013-07-10 17:07:00,74.4,73.0,29.88,SSW,203,16.0,21.0,96,0.00,,,0.00,weatherlink.com 1.10,2013-07-10 21:07:00,
2013-07-10 17:22:00,74.1,73.0,29.88,SSW,195,12.0,21.0,96,0.00,,,0.00,weatherlink.com 1.10,2013-07-10 21:22:00,
2013-07-10 17:37:00,74.0,73.0,29.87,SSW,205,12.0,21.0,97,0.00,,,0.00,weatherlink.com 1.10,2013-07-10 21:37:00,
2013-07-10 17:52:00,74.1,73.0,29.86,SSW,201,12.0,18.0,96,0.00,,,0.00,weatherlink.com 1.10,2013-07-10 21:52:00,
2013-07-10 18:07:00,73.8,73.0,29.86,SW,215,12.0,17.0,97,0.00,,,0.00,weatherlink.com 1.10,2013-07-10 22:07:00,
2013-07-10 18:22:00,74.4,74.0,29.85,SW,218,14.0,16.0,97,0.00,,,0.00,weatherlink.com 1.10,2013-07-10 22:22:00,
2013-07-10 18:37:00,74.7,74.0,29.85,WSW,240,10.0,16.0,97,0.00,,,0.00,weatherlink.com 1.10,2013-07-10 22:37:00,
2013-07-10 18:52:00,74.6,74.0,29.85,SW,221,16.0,18.0,97,0.00,,,0.00,weatherlink.com 1.10,2013-07-10 22:52:00,
2013-07-10 19:07:00,74.5,74.0,29.86,SSE,152,11.0,18.0,97,0.00,,,0.00,weatherlink.com 1.10,2013-07-10 23:07:00,
2013-07-10 19:22:00,74.3,73.0,29.86,SSW,208,12.0,19.0,97,0.00,,,0.00,weatherlink.com 1.10,2013-07-10 23:22:00,
2013-07-10 19:37:00,73.9,73.0,29.86,SSW,196,9.0,16.0,97,0.00,,,0.00,weatherlink.com 1.10,2013-07-10 23:37:00,
2013-07-10 19:52:00,73.7,73.0,29.85,SSW,201,8.0,16.0,97,0.00,,,0.00,weatherlink.com 1.10,2013-07-10 23:52:00,
2013-07-10 20:07:00,73.6,73.0,29.86,South,187,10.0,18.0,97,0.00,,,0.00,weatherlink.com 1.10,2013-07-11 00:07:00,
2013-07-10 20:22:00,73.8,73.0,29.86,SSW,203,13.0,18.0,98,0.00,,,0.00,weatherlink.com 1.10,2013-07-11 00:22:00,
2013-07-10 20:37:00,73.8,73.0,29.86,SW,214,13.0,18.0,97,0.00,,,0.00,weatherlink.com 1.10,2013-07-11 00:37:00,
2013-07-10 20:52:00,74.3,73.0,29.87,SW,224,17.0,20.0,97,0.00,,,0.00,weatherlink.com 1.10,2013-07-11 00:52:00,
2013-07-10 21:07:00,74.7,74.0,29.87,SSW,210,16.0,22.0,97,0.00,,,0.00,weatherlink.com 1.10,2013-07-11 01:07:00,
2013-07-10 21:22:00,74.7,74.0,29.87,West,259,16.0,21.0,97,0.00,,,0.00,weatherlink.com 1.10,2013-07-11 01:22:00,
2013-07-10 21:37:00,74.9,74.0,29.87,WSW,248,19.0,23.0,96,0.00,,,0.00,weatherlink.com 1.10,2013-07-11 01:37:00,
2013-07-10 21:52:00,74.8,74.0,29.87,SW,235,6.0,23.0,96,0.00,,,0.00,weatherlink.com 1.10,2013-07-11 01:52:00,
2013-07-10 22:07:00,74.7,74.0,29.86,WSW,254,11.0,15.0,96,0.00,,,0.00,weatherlink.com 1.10,2013-07-11 02:07:00,
2013-07-10 22:22:00,74.8,74.0,29.86,SW,235,9.0,15.0,97,0.00,,,0.00,weatherlink.com 1.10,2013-07-11 02:22:00,
2013-07-10 22:37:00,74.5,74.0,29.86,SW,219,9.0,17.0,97,0.00,,,0.00,weatherlink.com 1.10,2013-07-11 02:37:00,
2013-07-10 22:52:00,74.4,74.0,29.86,WNW,283,10.0,21.0,98,0.00,,,0.00,weatherlink.com 1.10,2013-07-11 02:52:00,
2013-07-10 23:07:00,74.4,74.0,29.85,SSW,206,5.0,20.0,98,0.00,,,0.00,weatherlink.com 1.10,2013-07-11 03:07:00,
2013-07-10 23:22:00,74.2,73.0,29.85,SW,222,8.0,19.0,97,0.00,,,0.00,weatherlink.com 1.10,2013-07-11 03:22:00,
2013-07-10 23:37:00,74.0,73.0,29.85,SW,214,11.0,20.0,97,0.00,,,0.00,weatherlink.com 1.10,2013-07-11 03:37:00,
2013-07-10 23:52:00,74.2,74.0,29.85,SW,233,17.0,20.0,98,0.00,,,0.00,weatherlink.com 1.10,2013-07-11 03:52:00,